San Jose, CA

4:37 PM PDT on April 29, 2017 (GMT -0700)
San Jose International

Weather History for KSJC - November, 2011

Change the Weather History Date:

Wednesday, November 30, 2011

  Actual Average Record
Temperature  
Mean Temperature 55 °F 52 °F  
Max Temperature 67 °F 60 °F 72 °F (2008)
Min Temperature 43 °F 43 °F 25 °F (1896)
Degree Days  
Heating Degree Days 10 13  
Month to date heating degree days 334 296  
Since 1 July heating degree days 393 407  
Cooling Degree Days 0 0  
Month to date cooling degree days 0 1  
Year to date cooling degree days 565 637  
Growing Degree Days 5 (Base 50)    
Moisture  
Dew Point 39 °F    
Average Humidity 59    
Maximum Humidity 100    
Minimum Humidity 18    
Precipitation  
Precipitation 0.00 in 0.07 in 1.14 in (2012)
Month to date precipitation 0.70 1.68  
Year to date precipitation 12.01 13.21  
Since 1 July precipitation 1.47  
Sea Level Pressure  
Sea Level Pressure 30.18 in    
Wind  
Wind Speed 10 mph (WNW)    
Max Wind Speed 28 mph    
Max Gust Speed 36 mph    
Visibility 5 miles    
Events Fog , Rain    
T = Trace of Precipitation, MM = Missing Value Source: NWS Daily Summary

Daily Weather History Graph

Daily Weather History Graph

Search for Another Location

Airport or City:

Trip Planner

Search our weather history database for the weather conditions in past years. The results will help you decide how hot, cold, wet, or windy it might be!

Date:

Astronomy

Nov. 30, 2011 Rise Set
Actual Time 7:02 AM PST 4:50 PM PST
Civil Twilight 6:33 AM PST 5:19 PM PST
Nautical Twilight 6:01 AM PST 5:51 PM PST
Astronomical Twilight 5:29 AM PST 6:22 PM PST
Moon 11:26 AM PST (11/30) 10:48 PM PST (11/30)
Length of Visible Light 10h 45m
Length of Day
9h 48m
Waxing Crescent, 34% of the Moon is Illuminated
Nov 30
Waxing Crescent
Dec 2
First Quarter
Dec 10
Full
Dec 17
Last Quarter
Dec 24
New

Hourly Weather History & Observations

Time (PST) Temp. Windchill Dew Point Humidity Pressure Visibility Wind Dir Wind Speed Gust Speed Precip Events Conditions
12:53 AM 44.1 °F - 44.1 °F 100% 30.19 in 0.2 mi Calm Calm - N/A Fog Fog
1:53 AM 45.0 °F - 45.0 °F 100% 30.19 in 0.2 mi Calm Calm - N/A Fog Fog
2:53 AM 46.0 °F - 46.0 °F 100% 30.20 in 0.2 mi Calm Calm - N/A Fog Fog
3:53 AM 45.0 °F 41.8 °F 45.0 °F 100% 30.18 in 0.2 mi ESE 5.8 mph - N/A Fog Fog
4:53 AM 45.0 °F 43.5 °F 45.0 °F 100% 30.17 in 0.2 mi SSE 3.5 mph - N/A Fog Fog
5:31 AM 46.4 °F 44.3 °F 46.4 °F 100% 30.19 in 0.5 mi NNW 4.6 mph - N/A Fog Fog
5:38 AM 46.4 °F 45.2 °F 46.4 °F 100% 30.19 in 0.2 mi NNW 3.5 mph - N/A Fog Fog
5:53 AM 46.0 °F - 46.0 °F 100% 30.19 in 0.2 mi Calm Calm - N/A Fog Fog
6:26 AM 46.4 °F - 46.4 °F 100% 30.20 in 0.5 mi Calm Calm - N/A Fog Fog
6:53 AM 46.0 °F 44.8 °F 46.0 °F 100% 30.21 in 0.2 mi SSW 3.5 mph - N/A Fog Fog
7:33 AM 46.4 °F - 46.4 °F 100% 30.21 in 1.0 mi Calm Calm - N/A   Overcast
7:53 AM 46.9 °F - 46.9 °F 100% 30.21 in 1.0 mi WNW 4.6 mph - N/A   Overcast
8:45 AM 46.4 °F 43.5 °F 46.4 °F 100% 30.21 in 1.0 mi WNW 5.8 mph - N/A   Overcast
8:53 AM 46.9 °F - 46.9 °F 100% 30.22 in 1.0 mi NW 8.1 mph - N/A   Overcast
9:03 AM 46.4 °F 42.4 °F 46.4 °F 100% 30.22 in 2.0 mi NW 8.1 mph - N/A   Overcast
9:20 AM 48.2 °F - 46.4 °F 93% 30.22 in 3.0 mi NW 6.9 mph - N/A   Overcast
9:50 AM 51.8 °F - 48.2 °F 88% 30.22 in 5.0 mi WNW 11.5 mph - N/A   Mostly Cloudy
9:53 AM 51.1 °F - 48.9 °F 92% 30.22 in 6.0 mi WNW 10.4 mph - N/A   Scattered Clouds
10:53 AM 54.0 °F - 46.0 °F 75% 30.22 in 10.0 mi WNW 11.5 mph - N/A   Partly Cloudy
11:53 AM 57.9 °F - 43.0 °F 58% 30.18 in 10.0 mi West 12.7 mph - N/A   Partly Cloudy
12:53 PM 61.0 °F - 37.9 °F 42% 30.14 in 10.0 mi West 15.0 mph - N/A   Clear
1:53 PM 63.0 °F - 37.0 °F 38% 30.11 in 10.0 mi WNW 20.7 mph 29.9 mph N/A   Clear
2:53 PM 66.9 °F - 23.0 °F 19% 30.11 in 10.0 mi NW 23.0 mph 32.2 mph N/A   Clear
3:53 PM 66.0 °F - 21.0 °F 18% 30.12 in 10.0 mi NNW 18.4 mph 32.2 mph N/A   Clear
4:53 PM 62.1 °F - 25.0 °F 24% 30.12 in 10.0 mi NW 15.0 mph - N/A   Clear
5:53 PM 61.0 °F - 26.1 °F 26% 30.14 in 10.0 mi NNW 15.0 mph - N/A   Clear
6:53 PM 59.0 °F - 27.0 °F 29% 30.14 in 10.0 mi NW 10.4 mph - N/A   Clear
7:53 PM 59.0 °F - 27.0 °F 29% 30.15 in 10.0 mi WNW 18.4 mph - 0.00 in Rain Light Rain
8:53 PM 59.0 °F - 25.0 °F 27% 30.18 in 10.0 mi NW 17.3 mph 26.5 mph N/A   Clear
9:53 PM 57.0 °F - 24.1 °F 28% 30.19 in 10.0 mi NW 10.4 mph 25.3 mph N/A   Clear
10:53 PM 57.2 °F - 24.8 °F 29% 30.21 in 10.0 mi WNW 10.4 mph - N/A   Clear
11:53 PM 55.9 °F - 23.0 °F 28% 30.20 in 10.0 mi WNW 12.7 mph 20.7 mph N/A   Clear